Nouasseur, Morocco

7:06 PM WEST on April 23, 2017 (GMT +0100)
Mohamed V

Weather History for GMMN - September, 2013

Change the Weather History Date:

Sunday, September 29, 2013

  Actual Average Record
Temperature  
Mean Temperature 74 °F -  
Max Temperature 83 °F 76 °F 91 °F (1996)
Min Temperature 64 °F 57 °F 53 °F (1996)
Cooling Degree Days 8    
Growing Degree Days 24 (Base 50)    
Moisture  
Dew Point 63 °F    
Average Humidity 73    
Maximum Humidity 94    
Minimum Humidity 35    
Precipitation  
Precipitation 0.00 in - - ()
Sea Level Pressure  
Sea Level Pressure 30.06 in    
Wind  
Wind Speed 8 mph ()    
Max Wind Speed 14 mph    
Max Gust Speed -    
Visibility 6.2 miles    
Events      
Averages and records for this station are not official NWS values.
T = Trace of Precipitation, MM = Missing Value Source: Averaged Metar Reports

Daily Weather History Graph

Daily Weather History Graph

Search for Another Location

Airport or City:

Trip Planner

Search our weather history database for the weather conditions in past years. The results will help you decide how hot, cold, wet, or windy it might be!

Date:

Astronomy

Sep. 29, 2013 Rise Set
Actual Time 7:23 AM WEST 7:17 PM WEST
Civil Twilight 6:58 AM WEST 7:42 PM WEST
Nautical Twilight 6:29 AM WEST 8:10 PM WEST
Astronomical Twilight 6:00 AM WEST 8:39 PM WEST
Moon 2:06 AM WEST (9/29) 3:52 PM WEST (9/29)
Length of Visible Light 12h 43m
Length of Day
11h 54m
Waning Crescent, 29% of the Moon is Illuminated
Sep 29
Waning Crescent
Oct 5
New
Oct 12
First Quarter
Oct 19
Full
Oct 27
Last Quarter

Hourly Weather History & Observations

Time (WEST) Temp. Heat Index Dew Point Humidity Pressure Visibility Wind Dir Wind Speed Gust Speed Precip Events Conditions
12:00 AM 71.6 °F - 64.4 °F 78% 30.06 in 6.2 mi WSW 9.2 mph - N/A   Mostly Cloudy
12:30 AM 69.8 °F - 64.4 °F 83% 30.04 in 6.2 mi SW 8.1 mph - N/A   Mostly Cloudy
1:00 AM 71 °F - 65 °F 76% 30.05 in 6 mi WSW 8.1 mph - -   Mostly Cloudy
1:00 AM 69.8 °F - 64.4 °F 83% 30.06 in 6.2 mi WSW 8.1 mph - N/A   Mostly Cloudy
1:30 AM 69.8 °F - 64.4 °F 83% 30.04 in 6.2 mi SW 9.2 mph - N/A   Mostly Cloudy
2:00 AM 69.8 °F - 64.4 °F 83% 30.06 in 6.2 mi SW 9.2 mph - N/A   Mostly Cloudy
2:30 AM 69.8 °F - 64.4 °F 83% 30.04 in 6.2 mi SW 9.2 mph - N/A   Mostly Cloudy
3:00 AM 69.8 °F - 64.4 °F 83% 30.04 in 6.2 mi SW 9.2 mph - N/A   Scattered Clouds
3:30 AM 68.0 °F - 64.4 °F 88% 30.04 in 6.2 mi SSW 6.9 mph - N/A   Scattered Clouds
4:00 AM 67 °F - 63 °F 83% 30.02 in 6 mi WSW 4.6 mph - -   Partly Cloudy
4:00 AM 68.0 °F - 62.6 °F 83% 30.04 in 6.2 mi WSW 4.6 mph - N/A   Scattered Clouds
4:30 AM 66.2 °F - 62.6 °F 88% 30.04 in 6.2 mi SW 6.9 mph - N/A   Scattered Clouds
5:00 AM 66.2 °F - 62.6 °F 88% 30.04 in 6.2 mi WSW 5.8 mph - N/A   Scattered Clouds
5:30 AM 66.2 °F - 62.6 °F 88% 30.04 in 6.2 mi SW 6.9 mph - N/A   Scattered Clouds
6:00 AM 66.2 °F - 62.6 °F 88% 30.04 in 6.2 mi SW 6.9 mph - N/A   Scattered Clouds
6:30 AM 64.4 °F - 62.6 °F 94% 30.04 in 6.2 mi SSW 8.1 mph - N/A   Scattered Clouds
7:00 AM 66 °F - 63 °F 88% 30.05 in 6 mi SSW 8.1 mph - -   Partly Cloudy
7:00 AM 66.2 °F - 62.6 °F 88% 30.04 in 6.2 mi SSW 8.1 mph - N/A   Scattered Clouds
7:30 AM 64.4 °F - 62.6 °F 94% 30.06 in 6.2 mi SW 6.9 mph - N/A   Scattered Clouds
8:00 AM 64.4 °F - 62.6 °F 94% 30.06 in 6.2 mi SSW 8.1 mph - N/A   Scattered Clouds
8:30 AM 66.2 °F - 64.4 °F 94% 30.06 in 6.2 mi SW 8.1 mph - N/A   Scattered Clouds
9:00 AM 68.0 °F - 66.2 °F 94% 30.06 in 6.2 mi SW 12.7 mph - N/A   Scattered Clouds
9:30 AM 69.8 °F - 64.4 °F 83% 30.09 in 6.2 mi WSW 12.7 mph - N/A   Scattered Clouds
10:00 AM 71 °F - 65 °F 75% 30.09 in 6 mi WSW 11.5 mph - -   Mostly Cloudy
10:00 AM 71.6 °F - 64.4 °F 78% 30.09 in 6.2 mi WSW 11.5 mph - N/A   Scattered Clouds
10:30 AM 73.4 °F - 62.6 °F 69% 30.09 in 6.2 mi WSW 12.7 mph - N/A   Scattered Clouds
11:00 AM 75.2 °F - 62.6 °F 65% 30.09 in 6.2 mi SW 11.5 mph - N/A   Scattered Clouds
11:30 AM 75.2 °F - 60.8 °F 61% 30.09 in 6.2 mi WSW 10.4 mph - N/A   Scattered Clouds
12:00 PM 77.0 °F - 62.6 °F 61% 30.09 in 6.2 mi WSW 9.2 mph - N/A   Scattered Clouds
12:30 PM 77.0 °F - 60.8 °F 57% 30.09 in 6.2 mi WSW 11.5 mph - N/A   Scattered Clouds
1:00 PM 79 °F - 60 °F 43% 30.06 in 6 mi WSW 11.5 mph - -   Mostly Cloudy
1:00 PM 78.8 °F - 60.8 °F 54% 30.09 in 6.2 mi WSW 11.5 mph - N/A   Scattered Clouds
1:30 PM 80.6 °F 81.1 °F 59.0 °F 48% 30.06 in 6.2 mi WSW 10.4 mph - N/A   Scattered Clouds
2:00 PM 82.4 °F 82.9 °F 60.8 °F 48% 30.06 in 6.2 mi West 11.5 mph - N/A   Scattered Clouds
2:30 PM 82.4 °F 82.5 °F 59.0 °F 45% 30.04 in 6.2 mi West 9.2 mph - N/A   Scattered Clouds
3:00 PM 82.4 °F 82.5 °F 59.0 °F 45% 30.04 in 6.2 mi West 11.5 mph - N/A   Scattered Clouds
3:30 PM 84.2 °F 84.4 °F 60.8 °F 45% 30.04 in 6.2 mi West 11.5 mph - N/A   Scattered Clouds
4:00 PM 84 °F - 61 °F 35% 30.01 in 6 mi West 10.4 mph - -   Partly Cloudy
4:00 PM 84.2 °F 84.4 °F 60.8 °F 45% 30.04 in 6.2 mi West 10.4 mph - N/A   Scattered Clouds
4:30 PM 82.4 °F 82.9 °F 60.8 °F 48% 30.04 in 6.2 mi West 10.4 mph - N/A   Scattered Clouds
5:00 PM 80.6 °F 82.3 °F 64.4 °F 58% 30.04 in 6.2 mi NW 12.7 mph - N/A   Scattered Clouds
5:30 PM 78.8 °F - 64.4 °F 61% 30.04 in 6.2 mi NW 12.7 mph - N/A   Scattered Clouds
6:00 PM 78.8 °F - 64.4 °F 61% 30.04 in 6.2 mi NNW 13.8 mph - N/A   Scattered Clouds
6:30 PM 77.0 °F - 64.4 °F 65% 30.04 in 6.2 mi NW 11.5 mph - N/A   Scattered Clouds
7:00 PM 76 °F - 63 °F 56% 30.02 in 6 mi NW 9.2 mph - -   Scattered Clouds
7:00 PM 75.2 °F - 62.6 °F 65% 30.04 in 6.2 mi NW 9.2 mph - N/A   Scattered Clouds
7:30 PM 75.2 °F - 64.4 °F 69% 30.04 in 6.2 mi NW 10.4 mph - N/A   Scattered Clouds
8:00 PM 73.4 °F - 64.4 °F 73% 30.06 in 6.2 mi NW 8.1 mph - N/A   Scattered Clouds
8:30 PM 71.6 °F - 64.4 °F 78% 30.06 in 6.2 mi NW 9.2 mph - N/A   Scattered Clouds
9:00 PM 71.6 °F - 66.2 °F 83% 30.06 in 6.2 mi NW 6.9 mph - N/A   Scattered Clouds
9:30 PM 71.6 °F - 66.2 °F 83% 30.09 in 6.2 mi WNW 6.9 mph - N/A   Scattered Clouds
10:00 PM 70 °F - 66 °F 83% 30.08 in 6 mi West 2.3 mph - -   Partly Cloudy
10:00 PM 69.8 °F - 66.2 °F 88% 30.09 in 6.2 mi West 2.3 mph - N/A   Scattered Clouds
10:30 PM 69.8 °F - 66.2 °F 88% 30.09 in 6.2 mi West 2.3 mph - N/A   Scattered Clouds
11:00 PM 69.8 °F - 66.2 °F 88% 30.09 in 6.2 mi SSW 2.3 mph - N/A   Scattered Clouds
11:30 PM 68.0 °F - 64.4 °F 88% 30.09 in 6.2 mi SSW 3.5 mph - N/A   Scattered Clouds